Skip Page Navigation
NASA JPL Caltech
NASA Logo - Jet Propulsion Laboratory + View the NASA Portal
+ Center for Near-Earth Object Studies
JPL Home Earth Solar System Stars & Galaxies Technology
JPL Solar System Dynamics
BODIES ORBITS EPHEMERIDES TOOLS PHYSICAL DATA DISCOVERY FAQ SITE MAP

Significant website upgrade scheduled for September 27. More details available here.

JPL Small-Body Database Browser
Search: [ help ]  
63252 (2001 BL41)
Classification: Centaur          SPK-ID: 2063252
Ephemeris | Orbit Diagram | Orbital Elements | Mission Design | Physical Parameters | Discovery Circumstances | Close-Approach Data ]

[ show orbit diagram ]
Orbital Elements at Epoch 2459396.5 (2021-Jul-01.0) TDB
Reference: JPL 13 (heliocentric ecliptic J2000)
 Element Value Uncertainty (1-sigma)   Units 
e .2954561227234265 2.6842e-07  
a 9.865881664179454 1.5329e-06 au
q 6.950946520432846 3.6792e-06 au
i 12.49711243392904 1.829e-05 deg
node 280.8389259170013 4.822e-05 deg
peri 129.5400330708107 6.1894e-05 deg
M 281.496134614776 6.7422e-05 deg
tp 2461864.759517348197
(2028-Apr-03.25951735)
0.0025927 TDB
period 11318.84935709928
30.99
0.002638
7.222e-06
d
yr
n .03180535305686394 7.4128e-09 deg/d
Q 12.78081680792606 1.9859e-06 au
  Orbit Determination Parameters
   # obs. used (total)      106  
   data-arc span      9031 days (24.73 yr)  
   first obs. used      1996-10-21  
   last obs. used      2021-07-13  
   planetary ephem.      DE441  
   SB-pert. ephem.      SB441-N16  
   condition code      0  
   norm. resid. RMS      .6521  
   source      ORB  
   producer      Otto Matic  
   solution date      2021-Aug-25 17:37:36  

Additional Information
 Earth MOID = 5.97753 au 
 Jupiter MOID = 2.10846 au 
 T_jup = 3.096 
[ show covariance matrix ]

Ephemeris | Orbit Diagram | Orbital Elements | Mission Design | Physical Parameters | Discovery Circumstances | Close-Approach Data ]

Physical Parameter Table
Parameter Symbol Value Units Sigma Reference Notes
absolute magnitude H 11.48   n/a MPO636931  

63252 (2001 BL41)          Discovered 2001-Jan-19 by Spacewatch at Kitt Peak
Reference: 20030614/Numbers.arcLast Updated: 2004-04-19

[ show close-approach data ]
Ephemeris | Orbit Diagram | Orbital Elements | Mission Design | Physical Parameters | Discovery Circumstances | Close-Approach Data ]
ABOUT SSD CREDITS/AWARDS PRIVACY/COPYRIGHT GLOSSARY LINKS
FirstGov 2021-Sep-18 06:15 UT
(server date/time)  
NASA Home Page
Site Manager:   Ryan S. Park
Webmaster  Alan B. Chamberlin